Tracking 32991 objects as of 22-Jan-2026
HD Live streaming from Space Station
objects crossing your sky now

CZ-6A DEB

Track CZ-6A DEB now!
10-day predictions


NORAD ID: 54990
Int'l Code: 2022-151UF
Perigee: 654.1 km
Apogee: 764.7 km
Inclination: 98.6 °
Period: 98.8 minutes
Semi major axis: 7080 km
RCS: Unknown
Launch date: November 11, 2022
Source: People's Republic of China (PRC)
Launch site: Taiyaun Space Center, China (TSC)

Note: This is SATELLITE DEBRIS
Your satellite tracking list
Your tracking list is empty




NASA's NSSDC Master Catalog

Two Line Element Set (TLE):
1 54990U 22151UF  26020.95872599  .00027607  00000-0  58547-2 0  9995
2 54990  98.6460  69.1893 0078098  61.2824 299.6193 14.57189084166923
Source of the keplerian elements: AFSPC